Weather History for Jackson, WY

Change the Weather History Date:

Sunday, January 27, 2013

  Actual Average Record
Temperature  
Mean Temperature 27 °F -  
Max Temperature 33 °F 28 °F 43 °F (1971)
Min Temperature 19 °F 1 °F -34 °F (1961)
Degree Days  
Heating Degree Days 38    
Moisture  
Dew Point 27 °F    
Average Humidity 94    
Maximum Humidity 100    
Minimum Humidity 80    
Precipitation  
Precipitation 0.01 in - - ()
Sea Level Pressure  
Sea Level Pressure 29.72 in    
Wind  
Wind Speed 6 mph (South)    
Max Wind Speed 15 mph    
Max Gust Speed 17 mph    
Visibility 7 miles    
Events Fog , Snow    
Averages and records for this station are not official NWS values.
T = Trace of Precipitation, MM = Missing Value Source: NWS Daily Summary

Daily Weather History Graph

Daily Weather History Graph

Search for Another Location

Airport:

Trip Planner

Search our weather history database for the weather conditions in past years. The results will help you decide how hot, cold, wet, or windy it might be!

Date:

Astronomy

Jan. 27, 2013 Rise Set
Actual Time 7:44 AM MST 5:27 PM MST
Civil Twilight 7:13 AM MST 5:58 PM MST
Nautical Twilight 6:38 AM MST 6:33 PM MST
Astronomical Twilight 6:04 AM MST 7:07 PM MST
Moon 6:29 PM MST (1/27) 7:36 AM MST (1/27)
Length of Visible Light 10h 45m
Length of Day
9h 43m
Full, 100% of the Moon is Illuminated
Jan 27
Full
Feb 3
Last Quarter
Feb 10
New
Feb 17
First Quarter
Feb 25
Full

Hourly Weather History & Observations

Time (MST) Temp. Windchill Dew Point Humidity Pressure Visibility Wind Dir Wind Speed Gust Speed Precip Events Conditions
12:15 AM 33.8 °F 27.0 °F 32.0 °F 93% 29.78 in 5.0 mi SW 8.1 mph - 0.01 in   Overcast
12:35 AM 33.8 °F 28.6 °F 32.0 °F 93% 29.77 in 8.0 mi SW 5.8 mph - 0.01 in   Overcast
12:55 AM 33.8 °F 30.8 °F 32.0 °F 93% 29.77 in 10.0 mi SSW 3.5 mph - 0.01 in   Overcast
1:15 AM 33.8 °F 28.6 °F 32.0 °F 93% 29.76 in 8.0 mi WSW 5.8 mph - N/A   Overcast
1:35 AM 33.8 °F 27.7 °F 33.8 °F 100% 29.75 in 9.0 mi WSW 6.9 mph - N/A   Overcast
1:55 AM 33.8 °F - 33.8 °F 100% 29.75 in 10.0 mi Calm Calm - N/A   Overcast
2:15 AM 32.0 °F 27.5 °F 30.2 °F 93% 29.75 in 6.0 mi SE 4.6 mph - N/A   Overcast
2:35 AM 30.2 °F 25.4 °F 30.2 °F 100% 29.75 in 10.0 mi SSE 4.6 mph - N/A   Overcast
2:55 AM 30.2 °F 25.4 °F 30.2 °F 100% 29.75 in 1.5 mi ESE 4.6 mph - N/A   Overcast
3:15 AM 30.2 °F 24.3 °F 30.2 °F 100% 29.74 in 10.0 mi SE 5.8 mph - N/A   Mostly Cloudy
3:35 AM 28.4 °F 22.2 °F 26.6 °F 93% 29.74 in 10.0 mi East 5.8 mph - N/A   Partly Cloudy
3:55 AM 28.4 °F 24.6 °F 28.4 °F 100% 29.74 in 10.0 mi SE 3.5 mph - N/A   Mostly Cloudy
4:15 AM 30.2 °F 25.4 °F 30.2 °F 100% 29.73 in 10.0 mi South 4.6 mph - N/A   Overcast
4:35 AM 30.2 °F 26.7 °F 30.2 °F 100% 29.73 in 10.0 mi East 3.5 mph - N/A   Mostly Cloudy
4:55 AM 30.2 °F - 30.2 °F 100% 29.74 in 10.0 mi Calm Calm - N/A   Partly Cloudy
5:15 AM 28.4 °F - 28.4 °F 100% 29.73 in 10.0 mi Calm Calm - N/A   Clear
5:35 AM 28.4 °F 24.6 °F 28.4 °F 100% 29.73 in 10.0 mi SSW 3.5 mph - N/A   Mostly Cloudy
5:55 AM 28.4 °F 23.3 °F 26.6 °F 93% 29.73 in 10.0 mi South 4.6 mph - N/A   Mostly Cloudy
6:15 AM 28.4 °F - 26.6 °F 93% 29.73 in 10.0 mi Calm Calm - N/A   Overcast
6:35 AM 28.4 °F - 28.4 °F 100% 29.73 in 10.0 mi Calm Calm - N/A   Overcast
6:52 AM 28.4 °F - 28.4 °F 100% 29.73 in 10.0 mi Calm Calm - N/A   Mostly Cloudy
7:51 AM 30.2 °F 24.3 °F 28.4 °F 93% 29.71 in 10.0 mi SSW 5.8 mph - N/A   Mostly Cloudy
8:51 AM 33.8 °F 27.0 °F 30.2 °F 87% 29.71 in 10.0 mi North 8.1 mph - N/A   Mostly Cloudy
9:56 AM 32.0 °F 22.5 °F 30.2 °F 93% 29.70 in 2.0 mi SSW 12.7 mph 17.3 mph N/A Snow Light Snow
10:51 AM 32.0 °F 24.2 °F 32.0 °F 100% 29.70 in 3.0 mi SW 9.2 mph - N/A Snow Light Snow
11:52 AM 30.2 °F 21.3 °F 30.2 °F 100% 29.67 in 2.0 mi WSW 10.4 mph - N/A Snow Light Snow
12:39 PM 30.2 °F 23.4 °F 28.4 °F 93% 29.66 in 1.5 mi WSW 6.9 mph - N/A Fog , Snow Snow
12:51 PM 30.2 °F 24.3 °F 28.4 °F 93% 29.65 in 0.8 mi WSW 5.8 mph - N/A Snow Light Snow
1:59 PM 28.4 °F 23.3 °F 28.4 °F 100% 29.64 in 0.8 mi ESE 4.6 mph - N/A Snow Light Snow
2:56 PM 30.2 °F - 30.2 °F 100% 29.63 in 0.8 mi Calm Calm - N/A Snow Snow
3:19 PM 28.4 °F - 26.6 °F 93% 29.64 in 0.5 mi Calm Calm - N/A Snow Snow
3:37 PM 28.4 °F 21.2 °F 28.4 °F 100% 29.64 in 0.8 mi North 6.9 mph - N/A Snow Snow
3:52 PM 28.4 °F - 28.4 °F 100% 29.64 in 0.8 mi Calm Calm - N/A Snow Snow
5:51 PM 26.6 °F 17.5 °F 24.8 °F 93% 29.67 in 2.0 mi West 9.2 mph - N/A Snow Light Snow
6:55 PM 26.6 °F 20.0 °F 21.2 °F 80% 29.69 in 10.0 mi SSE 5.8 mph - N/A   Mostly Cloudy
7:59 PM 24.8 °F 16.1 °F 21.2 °F 86% 29.70 in 10.0 mi South 8.1 mph - N/A   Overcast
8:51 PM 23.0 °F 14.7 °F 19.4 °F 86% 29.71 in 10.0 mi SSW 6.9 mph - N/A   Overcast
8:55 PM 23.0 °F 15.8 °F 19.4 °F 86% 29.71 in 10.0 mi South 5.8 mph - N/A   Overcast
9:15 PM 23.0 °F 13.1 °F 19.4 °F 86% 29.71 in 10.0 mi South 9.2 mph - N/A   Overcast
9:35 PM 23.0 °F 13.1 °F 19.4 °F 86% 29.72 in 10.0 mi South 9.2 mph - N/A   Overcast
9:55 PM 21.2 °F 11.7 °F 17.6 °F 86% 29.72 in 10.0 mi South 8.1 mph - N/A   Overcast
10:15 PM 21.2 °F 8.3 °F 17.6 °F 86% 29.72 in 10.0 mi South 13.8 mph - N/A   Overcast
10:55 PM 21.2 °F 7.8 °F 19.4 °F 93% 29.73 in 10.0 mi South 15.0 mph - N/A   Overcast
11:15 PM 21.2 °F 8.3 °F 19.4 °F 93% 29.73 in 10.0 mi South 13.8 mph - N/A   Mostly Cloudy
11:35 PM 21.2 °F 10.9 °F 19.4 °F 93% 29.73 in 10.0 mi SSW 9.2 mph - N/A   Mostly Cloudy
11:55 PM 19.4 °F 8.6 °F 17.6 °F 93% 29.73 in 10.0 mi South 9.2 mph - N/A   Partly Cloudy